Flag for U.S.A. Weather past 2 weeks in Minot, North Dakota, U.S.A.

Now
60 °F

Light rain. Fog.


Feels Like: 60 °F
Forecast: 56 / 65 °F
Wind: 15 mph from Southeast

Location: Minot International Airport

Current Time: May 6, 2015 at 2:39:27 PM

Latest Report: May 6, 2015 at 1:54 PM


Visibility: 2 mi

Pressure: 29.70 "Hg

Humidity: 93%

Dew point: 58 °F

Location of MinotLocation

Historic Weather in Minot — Graph

°F

Minot temperature yesterday

Maximum temperature yesterday: 78 °F (at 4:54 PM)
Minimum temperature yesterday: 53 °F (at 6:54 AM)
Average temperature yesterday: 64 °F

Past Weeks' High & Low Weather Summary

 TemperatureHumidityPressure
High80 °F (May 2, 3:54 PM)97% (Apr 25, 6:54 AM)30.34 "Hg (Apr 25, 6:54 AM)
Low23 °F (Apr 22, 6:54 AM)16% (Apr 29, 4:54 PM)29.57 "Hg (May 2, 3:54 PM)
Average52 °F51%29.96 "Hg
* Reported Apr 21 12:54 PM — May 6 12:54 PM, Minot, Weather by CustomWeather, © 2015

Note: Actual official high and low records may vary slightly from our data, if they occured in-between our weather recording intervals... More about our weather records

Advertising

Minot weather history for previous 24 hours

 ConditionsComfort  
Time TempWeatherWind HumidityBarometerVisibility
12:54 PM
Wed, May 6
61 °FLight rain. Fog.10 mph90%29.73 "Hg2 mi
11:54 AM61 °FLight rain. Fog.9 mph90%29.75 "Hg3 mi
10:54 AM62 °FLight rain. Fog.14 mph86%29.75 "Hg4 mi
9:54 AM62 °FOvercast.17 mph80%29.76 "Hg8 mi
8:54 AM60 °FLow clouds.15 mph86%29.75 "Hg7 mi
7:54 AM59 °FOvercast.7 mph87%29.75 "Hg10 mi
6:54 AM59 °FMostly cloudy.13 mph81%29.75 "Hg10 mi
5:54 AM58 °FOvercast.12 mph84%29.75 "Hg10 mi
4:54 AM55 °FClear.9 mph83%29.76 "Hg10 mi
3:54 AM52 °FClear.7 mph77%29.79 "Hg10 mi
2:54 AM53 °FClear.7 mph72%29.80 "Hg10 mi
1:54 AM52 °FClear.8 mph69%29.81 "Hg10 mi
12:54 AM52 °FClear.7 mph64%29.82 "Hg10 mi
11:54 PM
Tue, May 5
57 °FClear.6 mph51%29.82 "Hg10 mi
10:54 PM60 °FClear.6 mph41%29.82 "Hg10 mi
9:54 PM64 °FSunny.6 mph34%29.82 "Hg10 mi
8:54 PM69 °FSunny.8 mph27%29.81 "Hg10 mi
7:54 PM74 °FSunny.18 mph21%29.80 "Hg10 mi
6:54 PM76 °FSunny.18 mph17%29.82 "Hg10 mi
5:54 PM77 °FSunny.20 mph16%29.83 "Hg10 mi
4:54 PM78 °FSunny.21 mph16%29.85 "Hg10 mi
3:54 PM77 °FSunny.23 mph17%29.88 "Hg10 mi
2:54 PM76 °FSunny.20 mph19%29.90 "Hg10 mi
Weather by CustomWeather, © 2015

See weather overviewHow to use our weather pages